User: anonymous   Login
Location: Unspecified
(0.0000°N, 0.0000°E)
Time: 17:33:57
(UTC+00:00)
Language:

FALCON 9 R/B - Orbit

View from above orbital plane
View from above orbital plane
View from above satellite
View from above satellite

Ground track
Ground track

The orbit data is extracted from the following two-line orbital elements,

1 37253U 10066K   16181.66086738  .00002145  00000-0  20953-3 0  9998
2 37253  34.4912 155.7615 4292639 160.0640 223.9189  6.87148825136303
Epoch (UTC): 29 June 2016 15:51:38
Eccentricity: 0.4292639
inclination: 34.4912°
perigee height: 292 km
apogee height: 10325 km
right ascension of ascending node: 155.7615°
argument of perigee: 160.0640°
revolutions per day: 6.87148825
mean anomaly at epoch: 223.9189°
orbit number at epoch: 13630

The dashed part of the orbit path shows where the satellite is in the earth's shadow,  

DLR